Weather History for KGCC - September, 2013

Change the Weather History Date:

Friday, September 6, 2013

  Actual Average Record
Temperature  
Mean Temperature 80 °F 63 °F  
Max Temperature 95 °F 79 °F - ()
Min Temperature 64 °F 47 °F - ()
Degree Days  
Heating Degree Days 0 5  
Month to date heating degree days 0 24  
Since 1 July heating degree days 0 81  
Cooling Degree Days 15 3  
Month to date cooling degree days 65 18  
Year to date cooling degree days 587 478  
Growing Degree Days 28 (Base 50)    
Moisture  
Dew Point 54 °F    
Average Humidity 48    
Maximum Humidity 76    
Minimum Humidity 19    
Precipitation  
Precipitation 0.57 in 0.04 in - ()
Month to date precipitation 0.58 0.22  
Year to date precipitation 14.01 10.70  
Sea Level Pressure  
Sea Level Pressure 29.95 in    
Wind  
Wind Speed 8 mph (North)    
Max Wind Speed 54 mph    
Max Gust Speed 81 mph    
Visibility 8 miles    
Events Rain , Thunderstorm    
T = Trace of Precipitation, MM = Missing Value Source: NWS Daily Summary

Daily Weather History Graph

Daily Weather History Graph

Search for Another Location

Airport or City:

Trip Planner

Search our weather history database for the weather conditions in past years. The results will help you decide how hot, cold, wet, or windy it might be!

Date:

Astronomy

Sep. 06, 2013 Rise Set
Actual Time 6:31 AM MDT 7:28 PM MDT
Civil Twilight 6:01 AM MDT 7:58 PM MDT
Nautical Twilight 5:26 AM MDT 8:33 PM MDT
Astronomical Twilight 4:49 AM MDT 9:10 PM MDT
Moon 7:51 AM MDT (9/6) 7:48 PM MDT (9/6)
Length of Visible Light 13h 56m
Length of Day
12h 57m
New Moon, 2% of the Moon is Illuminated
Sep 6
New Moon
Sep 12
First Quarter
Sep 19
Full
Sep 26
Last Quarter
Oct 4
New

Hourly Weather History & Observations

Time (MDT) Temp. Heat Index Dew Point Humidity Pressure Visibility Wind Dir Wind Speed Gust Speed Precip Events Conditions
12:53 AM 77.0 °F - 51.1 °F 40% 29.84 in 10.0 mi South 13.8 mph - N/A   Clear
1:53 AM 77.0 °F - 48.0 °F 36% 29.83 in 10.0 mi SSW 16.1 mph - N/A   Clear
2:53 AM 79.0 °F - 43.0 °F 28% 29.83 in 10.0 mi WSW 17.3 mph - N/A   Clear
3:53 AM 77.0 °F - 46.0 °F 33% 29.86 in 10.0 mi West 10.4 mph - N/A   Clear
4:53 AM 70.0 °F - 48.0 °F 46% 29.89 in 10.0 mi WSW 8.1 mph - N/A   Clear
5:53 AM 68.0 °F - 51.1 °F 55% 29.90 in 10.0 mi West 5.8 mph - N/A   Clear
6:53 AM 68.0 °F - 53.1 °F 59% 29.94 in 10.0 mi West 10.4 mph - N/A   Clear
7:53 AM 73.9 °F - 54.0 °F 50% 29.95 in 10.0 mi Calm Calm - N/A   Clear
8:53 AM 77.0 °F - 57.0 °F 50% 29.96 in 10.0 mi North 8.1 mph - N/A   Clear
9:53 AM 81.0 °F 80.7 °F 55.0 °F 41% 29.97 in 10.0 mi North 6.9 mph - N/A   Clear
10:53 AM 84.9 °F 83.3 °F 54.0 °F 34% 29.95 in 10.0 mi NNE 8.1 mph - N/A   Clear
11:53 AM 87.1 °F 85.1 °F 54.0 °F 32% 29.95 in 10.0 mi ENE 5.8 mph - N/A   Clear
12:53 PM 91.0 °F 88.5 °F 53.1 °F 27% 29.94 in 10.0 mi ENE 5.8 mph - N/A   Clear
1:53 PM 93.0 °F - 50.0 °F 23% 29.91 in 10.0 mi NNW 8.1 mph 17.3 mph N/A   Clear
2:53 PM 91.9 °F - 48.0 °F 22% 29.89 in 10.0 mi NE 6.9 mph - N/A   Clear
3:53 PM 93.0 °F - 46.9 °F 20% 29.89 in 10.0 mi North 8.1 mph - N/A   Clear
4:53 PM 93.0 °F - 45.0 °F 19% 29.86 in 10.0 mi North 5.8 mph - N/A   Clear
5:53 PM 91.9 °F - 48.0 °F 22% 29.86 in 10.0 mi ENE 10.4 mph - N/A   Clear
6:53 PM 84.9 °F - 52.0 °F 32% 29.86 in 10.0 mi ENE 8.1 mph - N/A   Clear
7:38 PM 82.4 °F - 51.8 °F 35% 30.03 in 10.0 mi NE 4.6 mph - N/A Thunderstorm Clear
7:53 PM 80.1 °F 79.9 °F 53.1 °F 39% 29.90 in 10.0 mi West 21.9 mph 33.4 mph N/A Thunderstorm Thunderstorm
8:03 PM 73.4 °F - 57.2 °F 57% 30.08 in 3.0 mi South 54.1 mph 80.6 mph N/A Thunderstorm Unknown
8:05 PM 68.0 °F - 59.0 °F 73% 30.05 in 1.2 mi SSE 42.6 mph 80.6 mph N/A Thunderstorm Unknown
8:07 PM 64.4 °F - 59.0 °F 83% 30.08 in 0.8 mi SSE 29.9 mph 80.6 mph 0.00 in Rain , Thunderstorm Heavy Thunderstorms and Rain
8:14 PM 71.6 °F - 60.8 °F 69% 30.11 in 0.5 mi North 18.4 mph 58.7 mph 0.57 in Rain , Thunderstorm Heavy Thunderstorms and Rain
8:16 PM 71.6 °F - 60.8 °F 69% 30.11 in 0.8 mi North - - 0.57 in Thunderstorm Unknown
8:20 PM 69.8 °F - 59.0 °F 68% 30.11 in 2.0 mi ENE 20.7 mph 27.6 mph 0.57 in Thunderstorm Unknown
8:28 PM 66.2 °F - 59.0 °F 78% 30.11 in 10.0 mi ENE 17.3 mph 27.6 mph 0.57 in Thunderstorm Thunderstorm
8:53 PM 68.0 °F - 59.0 °F 73% 29.93 in 10.0 mi NW 6.9 mph - 0.57 in Thunderstorm Mostly Cloudy
9:38 PM 71.6 °F - 57.2 °F 60% 30.05 in 10.0 mi Calm Calm - N/A   Partly Cloudy
9:53 PM 66.9 °F - 61.0 °F 81% 29.90 in 10.0 mi SSW 6.9 mph - N/A   Clear
10:53 PM 68.0 °F - 59.0 °F 73% 29.91 in 10.0 mi Calm Calm - N/A   Clear
11:53 PM 68.0 °F - 61.0 °F 78% 29.91 in 10.0 mi Calm Calm - N/A   Scattered Clouds